Location: Karwodrza
(49.9217°N, 21.0454°E)
Time: 16:34:41
(UTC+01:00)

ISS - Pass Details

Date: 01 February 2019
Orbit: 403 x 411 km, 51.6° (Epoch: 19 February)

Event Time Altitude Azimuth Distance (km) Brightness Sun altitude
Rises 17:20:09 0° 269° (W) 2,332 1.8 -8.4°
Reaches altitude 10° 17:22:15 10° 272° (W) 1,474 0.4 -8.7°
Maximum altitude 17:25:32 64° 355° (N) 459 -3.6 -9.2°
Enters shadow 17:28:15 14° 76° (ENE) 1,246 -2.0 -9.6°
